Find Gaosu Jiguang Zuanzhi 1

NORAD ID: 62290 Int'l Des: 2024-238 Owner: CASC Country: CN operational
LEOCIRCULAR

当前视图

正在加载3D地球...

关于 Gaosu Jiguang Zuanzhi 1

正在加载描述...

即将过境

Passes for default location (London). Set your location on the main map for personalized predictions.

高度历史

Loading altitude history...

两行轨道根数

1 62290U 24238A 26159.18381663 -.00000033 00000-0 89571-4 0 9998
2 62290 59.9145 313.9111 0013584 231.3995 128.5797 13.75219739 74362
Epoch: Jun 8, 2026 • Age: 5 hours

当前状态

高度 995.1 km
速度 7.36 km/s
星下点 -51.57°S, 130.06°W
发射日期 Dec 12, 2024
运行时间 1.4 years
类型 other

技术详情

分类 Payload
质量 150.00 kg
干质量 150.00 kg
总质量 150.00 kg
长度 0.30 m
直径 0.20 m
跨度 3.00 m
形状 Box + 2 pan
制造商 HITSAT
平台类型 HarbFlat
阶段状态 In Orbit
所有者/国家 CASC/CN

Most Searched